Date String (YYYY-MM-DD hh:mm:ss) UTC,Instrument flags,Ambient pressure (hPa),Sample flow (lpm),Bypass flow (lpm),Sample temperature (°C),Ambient temperature (°C),ASC tube jacket temperature (°C),LED temperature (°C),Box temperature (°C),Sample RH (%),Span deviation,Mass concentration (μg/m³),Mass concentration (μg/m³),Mass concentration (μg/m³)
DateTimeUTC,F1_M11,P_M11,Q1_M11,Q2_M11,T1_M11,T2_M11,T3_M11,T4_M11,T5_M11,U1_M11,ZSPAN_M11,X0_M11,X2_M11,X1_M11
2022-08-08 18:00:00,,0832.0,5.00,0.00,31.1,27.7,00.0,39.7,31.9,33.6,-000.0,0011.03,0004.99,0004.52
2022-08-08 18:01:00,,0831.9,5.01,0.00,31.1,27.8,00.0,39.6,31.9,33.6,0000.0,0010.54,0004.85,0004.41
2022-08-08 18:02:00,,0831.8,4.99,0.00,31.0,28.0,00.0,39.6,32.0,33.9,0000.0,0009.99,0004.71,0004.33
2022-08-08 18:03:00,,0831.8,5.00,0.00,31.0,28.2,00.0,39.6,32.0,34.4,0000.0,0009.27,0004.62,0004.25
2022-08-08 18:04:00,,0831.8,5.00,0.00,31.0,28.3,00.0,39.6,32.0,33.8,0000.0,0008.88,0004.57,0004.21
2022-08-08 18:05:00,,0831.8,5.00,0.00,31.0,28.5,00.0,39.6,32.1,33.8,0000.0,0008.37,0004.53,0004.17
2022-08-08 18:06:00,,0831.9,5.00,0.00,30.9,28.6,00.0,39.6,32.1,33.8,0000.0,0008.00,0004.54,0004.15
2022-08-08 18:07:00,,0831.8,5.01,0.00,30.9,28.4,00.0,39.5,32.0,33.6,0000.0,0007.92,0004.53,0004.13
2022-08-08 18:08:00,,0831.7,5.00,0.00,30.9,27.8,00.0,39.4,31.9,33.7,0000.0,0007.90,0004.51,0004.11
2022-08-08 18:09:00,,0831.7,4.99,0.00,30.8,27.5,00.0,39.4,31.9,33.7,0000.0,0008.03,0004.51,0004.11
2022-08-08 18:10:00,,0831.7,5.01,0.00,30.7,27.5,00.0,39.4,31.7,34.3,0000.0,0008.44,0004.51,0004.11
2022-08-08 18:11:00,,0831.7,4.99,0.00,30.6,27.6,00.0,39.3,31.7,34.2,0000.0,0008.44,0004.50,0004.12
2022-08-08 18:12:00,,0831.7,5.01,0.00,30.6,27.7,00.0,39.3,31.8,34.2,0000.0,0008.47,0004.51,0004.12
2022-08-08 18:13:00,,0831.7,5.00,0.00,30.5,27.9,00.0,39.3,31.8,34.2,0000.0,0008.50,0004.52,0004.12
2022-08-08 18:14:00,,0831.7,5.00,0.00,30.5,28.1,00.0,39.3,31.9,34.8,0000.0,0008.46,0004.52,0004.13
2022-08-08 18:15:00,,0831.7,5.00,0.00,30.6,28.3,00.0,39.2,31.9,34.7,0000.0,0008.58,0004.51,0004.13
2022-08-08 18:16:00,,0831.7,4.99,0.00,30.6,28.4,00.0,39.2,32.0,35.1,0000.0,0009.12,0004.51,0004.13
2022-08-08 18:17:00,,0831.7,5.00,0.00,30.7,28.6,00.0,39.2,32.1,36.1,0000.0,0008.98,0004.48,0004.13
2022-08-08 18:18:00,,0831.7,4.99,0.00,31.0,28.5,00.0,39.2,32.2,34.3,0000.0,0009.02,0004.48,0004.11
2022-08-08 18:19:00,,0831.7,5.01,0.00,31.1,27.9,00.0,39.2,32.0,33.8,0000.0,0009.04,0004.49,0004.11
2022-08-08 18:20:00,,0831.7,5.00,0.00,31.1,27.5,00.0,39.2,31.9,33.1,0000.0,0008.88,0004.49,0004.09
2022-08-08 18:21:00,,0831.7,5.00,0.00,31.1,27.4,00.0,39.2,31.8,33.9,0000.0,0008.67,0004.48,0004.06
2022-08-08 18:22:00,,0831.7,5.00,0.00,31.0,27.5,00.0,39.2,31.7,34.6,0000.0,0008.87,0004.46,0004.04
2022-08-08 18:23:00,,0831.7,5.02,0.00,31.0,27.7,00.0,39.2,31.8,34.4,0000.0,0008.96,0004.45,0004.03
2022-08-08 18:24:00,,0831.7,5.00,0.00,31.0,27.9,00.0,39.2,31.9,34.0,0000.0,0008.96,0004.45,0004.02
2022-08-08 18:25:00,,0831.7,5.00,0.00,31.0,28.1,00.0,39.3,31.9,34.4,0000.0,0009.49,0004.49,0004.03
2022-08-08 18:26:00,,0831.6,4.99,0.00,31.0,28.2,00.0,39.3,32.0,35.7,0000.0,0009.69,0004.50,0004.05
2022-08-08 18:27:00,,0831.7,5.01,0.00,31.3,28.4,00.0,39.3,32.2,34.2,0000.0,0008.98,0004.50,0004.09
2022-08-08 18:28:00,,0831.7,5.00,0.00,31.5,28.4,00.0,39.3,32.2,33.8,0000.1,0009.03,0004.53,0004.10
2022-08-08 18:29:00,,0831.7,5.01,0.00,31.5,27.9,00.0,39.3,32.0,33.5,0000.7,0009.13,0004.59,0004.14
2022-08-08 18:30:00,,0831.7,5.00,0.00,31.5,27.4,00.0,39.3,31.9,34.6,0001.2,0009.21,0004.62,0004.17
2022-08-08 18:31:00,,0831.7,5.00,0.00,31.4,27.4,00.0,39.3,31.8,34.7,0000.9,0009.19,0004.66,0004.22
2022-08-08 18:32:00,,0831.6,5.00,0.00,31.4,27.5,00.0,39.4,31.8,33.9,0000.8,0008.81,0004.72,0004.26
2022-08-08 18:33:00,,0831.6,5.00,0.00,31.4,27.6,00.0,39.4,31.9,33.6,0000.8,0009.00,0004.78,0004.31
2022-08-08 18:34:00,,0831.6,5.00,0.00,31.4,27.8,00.0,39.4,31.9,34.3,0001.0,0009.68,0004.80,0004.34
2022-08-08 18:35:00,,0831.5,5.00,0.00,31.3,28.0,00.0,39.4,32.0,34.2,0001.6,0010.04,0004.83,0004.37
2022-08-08 18:36:00,,0831.5,5.01,0.00,31.3,28.2,00.0,39.5,32.0,34.5,0001.7,0010.09,0004.87,0004.42
2022-08-08 18:37:00,,0831.5,5.00,0.00,31.3,28.4,00.0,39.5,32.1,34.8,0001.8,0009.63,0004.88,0004.44
2022-08-08 18:38:00,,0831.6,4.99,0.00,31.4,28.5,00.0,39.5,32.2,34.8,0001.4,0010.61,0004.88,0004.42
2022-08-08 18:39:00,,0831.5,4.99,0.00,31.6,28.3,00.0,39.5,32.2,34.3,0000.7,0010.83,0004.87,0004.41
2022-08-08 18:40:00,,0831.6,5.01,0.00,31.6,27.7,00.0,39.5,32.0,32.9,0000.0,0010.89,0004.84,0004.41
2022-08-08 18:41:00,,0831.6,4.99,0.00,31.6,27.4,00.0,39.5,32.0,32.7,0000.0,0011.49,0004.85,0004.40
2022-08-08 18:42:00,,0831.5,5.00,0.00,31.5,27.4,00.0,39.5,31.9,33.6,0000.0,0011.59,0004.86,0004.39
2022-08-08 18:43:00,,0831.5,5.00,0.00,31.4,27.5,00.0,39.5,31.9,33.4,0000.0,0013.11,0004.89,0004.42
2022-08-08 18:44:00,,0831.5,5.00,0.00,31.3,27.7,00.0,39.5,31.9,33.0,0000.0,0012.80,0004.85,0004.41
2022-08-08 18:45:00,,0831.5,4.99,0.00,31.3,27.9,00.0,39.5,31.9,34.1,0000.0,0011.95,0004.88,0004.41
2022-08-08 18:46:00,,0831.5,5.00,0.00,31.3,28.1,00.0,39.5,32.0,35.0,0000.2,0011.76,0004.92,0004.43
2022-08-08 18:47:00,,0831.5,5.00,0.00,31.3,28.3,00.0,39.6,32.1,34.6,0000.4,0011.64,0004.95,0004.43
2022-08-08 18:48:00,,0831.5,5.00,0.00,31.4,28.4,00.0,39.6,32.2,33.8,0000.0,0011.80,0004.96,0004.41
2022-08-08 18:49:00,,0831.5,5.01,0.00,31.5,28.5,00.0,39.6,32.2,33.5,0000.0,0011.58,0004.97,0004.41
2022-08-08 18:50:00,,0831.5,4.99,0.00,31.5,28.1,00.0,39.6,32.1,33.8,0000.0,0011.77,0004.99,0004.44
2022-08-08 18:51:00,,0831.5,5.01,0.00,31.4,27.5,00.0,39.5,31.9,33.8,0000.0,0011.72,0005.02,0004.46
2022-08-08 18:52:00,,0831.5,4.99,0.00,31.3,27.4,00.0,39.5,31.9,33.7,0000.0,0011.08,0005.01,0004.49
2022-08-08 18:53:00,,0831.5,5.02,0.00,31.2,27.4,00.0,39.5,31.8,33.5,0000.0,0010.75,0004.97,0004.48
2022-08-08 18:54:00,,0831.5,4.99,0.00,31.1,27.6,00.0,39.5,31.9,33.4,0000.0,0009.33,0004.93,0004.46
2022-08-08 18:55:00,,0831.5,5.01,0.00,31.1,27.8,00.0,39.5,31.9,33.4,0000.0,0009.98,0004.96,0004.46
2022-08-08 18:56:00,,0831.5,5.00,0.00,31.0,28.0,00.0,39.5,31.9,33.0,0000.0,0010.54,0004.92,0004.44
2022-08-08 18:57:00,,0831.5,5.00,0.00,31.0,28.2,00.0,39.5,32.0,33.1,0000.0,0010.40,0004.85,0004.41
2022-08-08 18:58:00,,0831.5,5.01,0.00,31.0,28.3,00.0,39.5,32.0,33.3,0000.0,0010.32,0004.79,0004.37
2022-08-08 18:59:00,,0831.5,5.00,0.00,30.9,28.5,00.0,39.5,32.0,32.7,0000.0,0010.33,0004.74,0004.34
